Opatija HR Speed Test Log

Averages  Max Speed    
1 to 25 of 258** for City Opatija HR
Time
  
  Speed   Provider Size    User ConnectID   TestID  
12/10/19 9:04:33 am 10.05 Mbps 1.26 MB/sOptima 6.3 MB780537566710 7MQfWLbUz 
12/10/19 9:04:10 am 18.08 Mbps 2.26 MB/sOptima 25.9 MB780537566710 lK974~IzX 
11/4/19 9:36:53 am 18.53 Mbps 2.32 MB/sVipnet 22.7 MB8643426801932 WnywfH4c6 
10/26/19 7:29:48 pm 6.93 Mbps 866 kB/sHrvatski 13.6 MB8541074446645 1bl3PSY_9 
10/21/19 8:17:28 pm 3.48 Mbps 435 kB/sVipnet 2.5 MB86434268157 3uw3188S1 
10/17/19 10:42:19 am 41.37 Mbps 5.17 MB/sHrvatski 84.7 MB8541073169204 HvB8QqbVi 
9/3/19 8:00:39 pm 10.41 Mbps 1.3 MB/sHrvatski 14.9 MB854107323520 RIGzi2ZDZ 
9/2/19 6:40:27 pm 7.55 Mbps 944 kB/sVipnet 7.6 MB864342712690 fpwHKx1_b 
8/11/19 6:14:12 am 3.44 Mbps 429 kB/sTele2 4.6 MB7081334420620 49pJExCh0 
8/11/19 6:13:55 am 22.29 Mbps 2.79 MB/sTele2 83.8 MB7081334420620 SjHqJQk8l 
8/10/19 9:49:15 am 3.86 Mbps 482 kB/sVipnet 22.2 MB808897043992 bIpXBb3kO 
5/8/19 3:33:40 pm 29.58 Mbps 3.7 MB/sHrvatski 23.9 MB71722400261 l8dEHSHfj 
3/20/19 5:44:42 pm 378 kbps 47 kB/sHrvatski 1.3 MB854107394224 KunWdrJsf 
3/15/19 2:13:57 am 94.09 Mbps 11.76 MB/sHrvatski 200 MB854107396150 oDYbn-y9X 
3/15/19 2:10:56 am 71.96 Mbps 9 MB/sHrvatski 43.1 MB854107396150 Hlp2iK8~2 
3/8/19 6:32:33 pm 305 kbps 38 kB/sHrvatski 1.3 MB8177467778450 -BmRcr7Hn 
3/8/19 6:31:25 pm 2.71 Mbps 339 kB/sHrvatski 3.1 MB8177467778450 vJ14pZcSz 
3/8/19 6:31:04 pm 322 kbps 40 kB/sHrvatski 1.6 MB8177467778450 vUb1JNnL8 
3/8/19 6:29:59 pm 1.91 Mbps 239 kB/sHrvatski 1.3 MB8177467778450 U_4sWvFCK 
3/8/19 6:29:51 pm 307 kbps 38 kB/sHrvatski 1.3 MB8177467778450 aiNnAPqpD 
3/5/19 7:47:36 pm 2.92 Mbps 365 kB/sHrvatski 6.3 MB8177467785603 gAHZ1whcH 
1/23/19 4:25:47 pm 14.63 Mbps 1.83 MB/sHrvatski 19.4 MB8177467955164 YPpNh3lJ3 
5/13/18 9:38:55 pm 3.52 Mbps 439 kB/sHrvatski 4.9 MB715538548 29fCGmMhL 
4/24/18 8:21:33 pm 3.89 Mbps 487 kB/sHrvatski 6.3 MB8541079307247 HRr2D1OV4 
4/10/18 6:03:30 pm 28.6 Mbps 3.58 MB/sHrvatski 19.4 MB7155334246 q7rOYumPX 
  
** Partial Results: The most recent results have been displayed. Results over 50 Mbps are highlighted.
Calculated from graphed results above not entire query.
Displaying Internet Speed Test results for City Opatija HR

Minimum

Min 0.31 Mbps : 1.91 Mbps

Average

Avg 18.24 Mbps : 4.53 Mbps

Maximum

Max 94.09 Mbps : 10.05 Mbps

Minimum

Min: 0.31 Mbps : 1.91 Mbps |

Average

Avg: 18.24 Mbps : 4.53 Mbps |

Maximum

Max: 94.09 Mbps : 10.05 Mbps